Regional Weather Roundup
Issued by NWS

Home | Current Version | Previous Version | Graphics & Text | Print | Product List | Glossary On
Versions: 1 2 3 4 5 6 7 8 9 10 11 12 13 14 15 16 17 18 19 20 21 22 23 24 25 26 27 28 29 30 31 32 33 34 35 36 37 38 39 40 41 42 43 44 45 46 47 48 49 50
726
ASUS43 KMPX 291110
RWRMN
WEATHER ROUNDUP FOR MINNESOTA
NATIONAL WEATHER SERVICE TWIN CITIES/CHANHASSEN MN
600 AM CDT MON MAY 29 2017


NOTE: "FAIR" INDICATES FEW OR NO CLOUDS BELOW 12,000 FEET WITH NO
SIGNIFICANT WEATHER AND/OR OBSTRUCTIONS TO VISIBILITY. N/A MEANS
CURRENT SKY AND/OR WEATHER CONDITIONS ARE NOT AVAILABLE.

MNZ060>063-068>070-291200-
   Twin Cities Metro

CITY           SKY/WX    TMP DP  RH WIND       PRES   REMARKS
TWIN CITIES    CLOUDY    55  47  74 W12       29.76R
ST PAUL        CLOUDY    55  48  77 W10       29.76R
CRYSTAL        CLOUDY    54  45  71 W13G21    29.75R
BLAINE         PTCLDY    54  48  82 W9        29.75R
LAKEVILLE      MOCLDY    52  46  82 W10       29.77R
EDEN PRAIRIE   CLOUDY    55  47  74 W12       29.76R
SOUTH ST PAUL  CLOUDY    55  47  74 W10G18    29.75S
LAKE ELMO      MOCLDY    52  48  87 W9        29.75S
$$
MNZ001>005-007-008-013>017-022>024-027-028-291200-
   Northwest Minnesota

CITY           SKY/WX    TMP DP  RH WIND       PRES   REMARKS
BEMIDJI        CLOUDY    47  45  95 NW10      29.74R
HALLOCK        DRIZZLE   48  46  93 N14G22    29.81R
ROSEAU         CLOUDY    48  43  81 NW9       29.76R
WARROAD        CLOUDY    48  45  87 NW10G21   29.74R
THIEF RVR FALL CLOUDY    46  44  93 NW17      29.79R
CROOKSTON      CLOUDY    48  48 100 NW13      29.82R
FOSSTON        CLOUDY    46  45  93 NW14G20   29.78R FOG
DETROIT LAKES  CLOUDY    48  46  93 NW16G22   29.80R
MOORHEAD       LGT RAIN  52  48  87 NW16      29.83R
PARK RAPIDS    CLOUDY    50  45  83 NW13      29.74R
MAHNOMEN       CLOUDY    48  46  95 NW12      29.78S
$$
MNZ006-009>011-018-025>026-291200-
   North Central Minnesota

CITY           SKY/WX    TMP DP  RH WIND       PRES   REMARKS
BAUDETTE       CLOUDY    48  47  96 NW12      29.71R
FLAG ISLAND    CLOUDY    48  46  93 NW18G24   29.70R
INTL FALLS     LGT RAIN  50  48  93 NW12      29.65S FOG
WASKISH        DRIZZLE   48  46  93 NW13      29.72R
BIG FORK       DRIZZLE   48  46  93 W3        29.69R
LONGVILLE      CLOUDY    48  46  93 NW7       29.72R
GRAND RAPIDS   CLOUDY    50  46  86 NW14      29.71R
CRANE LAKE     LGT RAIN  50  48  93 CALM      29.63S
ORR            CLOUDY    50  46  87 NW9G17    29.62R
COOK           DRIZZLE   48  48 100 W9G16     29.65R
WALKER         CLOUDY    47  45  92 NW8       29.73R
$$
MNZ012-019>021-037-291200-
   Northeast Minnesota

CITY           SKY/WX    TMP DP  RH WIND       PRES   REMARKS
DULUTH         CLOUDY    52  49  89 NW15      29.63S
ELY            DRIZZLE   52  50  93 W8        29.60R
HIBBING        LGT RAIN  48  48 100 NW9       29.66R
EVELETH        CLOUDY    53  47  82 NW12      29.65S
DULUTH HARBOR  CLOUDY    55  52  88 W12       29.65R
TWO HARBORS    CLOUDY    55  52  88 W6        29.60R
SILVER BAY     CLOUDY    54  52  94 CALM      29.58R
GRAND MARAIS     N/A     41  41 100 CALM      29.56S
G MARAIS ARPRT CLOUDY    50  45  81 NW5       29.56S
$$
MNZ029>031-032-039>041-046>048-054>057-064-291200-
   West Central Minnesota

CITY           SKY/WX    TMP DP  RH WIND       PRES   REMARKS
FERGUS FALLS   CLOUDY    48  48 100 NW14      29.81R
WHEATON        LGT RAIN  54  48  82 NW8       29.86R
MORRIS         CLOUDY    52  46  82 NW21G26   29.82R
ALEXANDRIA     CLOUDY    50  48  93 W15       29.80R
ELBOW LAKE     CLOUDY    49  49  97 NW16G22   29.82R
WADENA         CLOUDY    48  46  93 NW15G23   29.76R
GLENWOOD       CLOUDY    50  48  93 NW15      29.80S
APPLETON       CLOUDY    55  46  71 W10       29.83R
BENSON         CLOUDY    54  46  76 N13G20    29.84R
ORTONVILLE     MOCLDY    52  46  82 W8        29.85R
MADISON        PTCLDY    54  48  82 W9        29.86R
WILLMAR        CLOUDY    54  48  82 NW13G22   29.83R
$$
MNZ033>034-036-042>043-049>051-058-059-291200-
   Central Minnesota

CITY           SKY/WX    TMP DP  RH WIND       PRES   REMARKS
ST CLOUD       CLOUDY    52  48  86 W12       29.76R
SAUK CENTRE    CLOUDY    50  46  87 NW13      29.78S
PAYNESVILLE    CLOUDY    52  46  79 W12       29.79S
AITKIN         CLOUDY    50  46  87 W3        29.70R
PINE RIVER     CLOUDY    48  48 100 W5        29.77R
BRAINERD       CLOUDY    50  48  93 W10       29.74R FOG
STAPLES        CLOUDY    48  46  93 NW10G18   29.76R
LONG PRAIRIE   CLOUDY    50  45  81 W10       29.78S
LITTLE FALLS   CLOUDY    50  45  81 W8        29.76R
LITCHFIELD     CLOUDY    55  48  76 NW10G16   29.80R
BUFFALO        CLOUDY    53  46  76 W9G22     29.78R
MAPLE LAKE     CLOUDY    53  49  84 W8        29.78R
HUTCHINSON     CLOUDY    54  48  81 W14       29.81R
$$
MNZ037-044-045-052-053-291200-
   East Central Minnesota

CITY           SKY/WX    TMP DP  RH WIND       PRES   REMARKS
PRINCETON      CLOUDY    52  48  87 W8        29.75R
MORA           CLOUDY    50  46  87 W7        29.74R
CAMBRIDGE      CLOUDY    54  46  76 W7        29.72R
RUSH CITY      CLOUDY    51  47  86 W6        29.72S
MOOSE LAKE     RAIN      50  48  93 W6        29.67S
HINCKLEY       CLOUDY    52  50  93 W7        29.71R
CLOQUET        CLOUDY    52  46  82 W10       29.66R
MCGREGOR       CLOUDY    50  48  93 W8        29.70S
$$
MNZ071>073-080-081-089-090-097-098-291200-
   Southwest Minnesota

CITY           SKY/WX    TMP DP  RH WIND       PRES   REMARKS
MONTEVIDEO     CLOUDY    54  46  76 NW9       29.84R
CANBY          PTCLDY    51  46  80 NW7       29.87S
MARSHALL       PTCLDY    51  45  79 W12       29.87R
REDWOOD FALLS  CLOUDY    52  44  74 W10       29.84R
OLIVIA         CLOUDY    54  46  76 NW13G18   29.82R
PIPESTONE      CLEAR     48  41  76 NW9       29.90R
WINDOM         CLEAR     50  45  81 W9        29.86R
WORTHINGTON    CLEAR     49  43  80 W14       29.89R
JACKSON        PTCLDY    52  43  71 W8        29.86S
TRACY          PTCLDY    51  46  82 W9        29.87R
SLAYTON        PTCLDY    48  44  86 W13       29.89R
$$
MNZ065>067-074>077-082>085-091>093-291200-
   South Central Minnesota

CITY           SKY/WX    TMP DP  RH WIND       PRES   REMARKS
MANKATO        PTCLDY    52  45  76 W15       29.82R
NEW ULM        CLOUDY    52  45  76 W12       29.83S
ST JAMES       CLEAR     52  45  76 W15       29.85R
FAIRMONT       CLEAR     53  44  71 W12       29.85R
GLENCOE        CLEAR     52  49  87 W12G18    29.79R
FARIBAULT      CLOUDY    54  46  76 W13       29.79S
OWATONNA       CLEAR     52  45  76 W13       29.80R
WASECA         CLEAR     52  45  76 W14       29.82R
ALBERT LEA     CLEAR     54  46  76 W6        29.82R
$$
MNZ078>079-086>088-094>096-291200-
   Southeast Minnesota

CITY           SKY/WX    TMP DP  RH WIND       PRES   REMARKS
ROCHESTER      PTCLDY    50  45  83 W14       29.79R
RED WING       MOCLDY    55  46  71 W7G16     29.75R
STANTON        CLOUDY    54  46  76 W10       29.76R
DODGE CENTER   CLEAR     52  45  76 W13G18    29.79R
WINONA         PTCLDY    55  46  71 W10G21    29.76R
AUSTIN         CLEAR     52  45  76 W9        29.81R
PRESTON        CLEAR     50  44  79 W12       29.80R
$$
ABBREVIATIONS USED IN REMARKS
   TC - TEMPERATURES IN CELSIUS
  WCI - WIND CHILL INDEX
   HX - HEAT INDEX
  VSB - VISIBILITY
$$




USA.gov is the U.S. government's official web portal to all federal, state and local government web resources and services.